Wind_Speed
62 64 66 68 69 69 69 70 70 72 74 76 76 77 78 78 80 82 83 86 87 87 86 86 84 81 77 72 66 59 64 60
67 67 70 73 73 74 74 75 76 77 78 79 81 83 85 86 87 88 88 88 88 90 92 92 90 88 84 80 74 69 57 61
71 72 74 76 76 77 81 82 84 85 84 86 87 88 91 92 92 92 93 91 90 91 91 93 94 93 91 87 84 76 68 64
74 78 81 84 84 86 87 88 90 93 96 98 100 99 99 100 101 103 105 104 104 101 98 96 97 101 100 99 96 90 79 71
79 81 84 86 87 90 93 95 97 99 101 103 105 106 106 107 108 109 111 114 115 116 113 110 108 104 103 106 104 99 92 79
84 85 86 87 89 90 92 95 98 102 104 107 110 112 113 114 115 116 119 120 122 122 125 126 123 120 115 112 113 106 102 88
88 90 91 94 94 94 95 95 96 99 104 107 109 112 115 117 118 122 122 124 123 126 128 129 129 125 119 118 115 112 105 92
94 94 95 96 96 97 97 99 101 103 106 110 113 113 114 118 120 119 123 120 118 114 112 112 111 111 110 106 99 101 104 96
98 99 98 98 98 97 97 100 104 108 109 113 114 116 114 109 103 101 98 98 97 97 101 103 103 101 99 99 97 90 95 93
105 105 105 104 100 100 103 107 110 112 111 110 110 106 99 94 91 89 88 88 86 87 89 89 93 96 95 93 91 85 81 88
109 109 108 102 101 104 106 108 110 111 112 108 103 95 90 85 80 78 77 75 72 72 74 78 81 86 88 88 86 84 80 83
112 110 104 102 104 106 108 108 109 111 104 97 93 87 82 75 74 72 70 64 62 62 64 67 69 72 76 80 81 81 77 75
112 104 103 104 106 107 109 110 108 96 93 89 83 78 75 73 72 69 64 60 60 57 57 59 60 64 66 69 70 73 75 74
109 105 105 107 107 107 107 98 93 89 87 81 77 75 70 67 65 63 60 59 58 55 53 53 54 55 57 59 61 60 62 67
107 106 105 103 103 104 94 87 85 82 79 79 77 72 65 62 61 58 56 54 52 50 48 50 50 50 50 52 53 53 53 57
107 105 102 104 98 90 84 82 79 76 77 78 75 70 62 58 58 54 49 47 45 44 44 45 45 45 45 45 45 46 47 49
102 101 102 94 87 82 79 77 76 75 76 76 74 69 60 55 54 50 46 44 42 40 40 40 40 41 41 41 40 41 43 47
99 97 89 84 79 77 75 74 74 75 75 74 70 66 60 53 51 48 43 42 40 38 38 37 37 38 37 37 37 38 41 45
92 85 81 77 76 73 73 73 74 75 73 70 65 62 59 55 49 47 43 41 40 39 36 36 34 35 34 34 34 35 39 41
Wind_Direction
287 287 288 291 292 291 289 288 288 288 288 287 286 284 282 280 279 279 278 279 282 282 280 278 277 277 274 271 270 268 269 267
288 290 289 290 290 289 288 288 287 287 286 286 285 286 285 284 282 281 280 277 276 276 276 277 277 277 275 273 269 268 261 261
289 288 289 290 290 289 291 292 291 290 289 288 288 287 287 287 287 286 286 283 282 281 279 278 278 278 277 274 271 266 264 256
292 292 292 292 290 289 289 288 287 287 288 288 288 288 288 287 287 287 287 284 282 277 275 272 272 274 274 275 274 272 268 261
295 295 294 293 292 291 290 290 289 289 288 289 289 288 287 285 284 284 283 283 282 280 278 275 270 269 269 271 271 270 268 263
298 297 297 297 296 294 293 293 293 292 291 291 290 288 286 286 285 283 281 280 279 278 278 278 274 272 268 267 269 267 265 261
298 301 301 300 298 296 295 295 294 293 291 292 292 290 286 284 283 282 281 280 277 275 275 274 272 271 268 265 264 263 261 258
300 300 301 298 298 297 295 294 295 295 296 294 293 291 289 288 286 284 282 280 279 277 274 270 269 268 268 266 260 256 256 254
299 300 300 302 301 299 298 296 297 299 299 297 294 293 291 290 287 284 282 279 276 274 270 270 270 268 266 265 262 255 250 248
302 303 303 304 303 302 299 300 301 301 298 298 297 295 293 292 291 288 284 279 276 272 271 269 266 265 263 262 260 256 246 243
303 304 303 304 304 301 301 302 301 301 300 300 299 297 296 297 294 289 287 283 280 275 271 267 265 263 262 260 258 255 248 237
304 304 304 303 303 302 303 303 303 301 301 300 300 301 300 300 296 292 290 289 283 277 273 270 267 265 262 260 258 255 250 243
305 305 304 303 304 305 305 304 302 301 299 300 301 302 304 301 298 294 293 291 287 282 276 271 267 264 262 260 259 255 252 247
305 303 303 304 304 303 303 301 301 300 301 302 304 304 303 300 296 294 294 291 288 284 279 273 267 264 261 259 257 252 248 246
302 302 302 304 304 303 301 301 301 302 303 303 304 304 304 300 297 297 293 290 286 282 278 275 272 268 263 258 255 252 246 237
301 302 304 304 302 300 301 302 302 301 301 302 304 306 305 301 300 296 293 288 283 280 277 274 271 270 265 260 255 249 243 236
304 305 304 300 300 301 301 301 300 300 302 305 305 305 303 302 299 296 293 290 285 282 277 272 271 267 264 261 253 246 239 232
304 302 300 299 299 300 299 299 299 302 303 304 304 303 301 302 299 296 293 290 285 280 274 270 266 265 263 258 251 244 237 232
300 297 297 298 298 298 299 299 300 301 302 302 301 299 300 301 300 296 293 290 286 281 273 268 262 261 258 256 248 240 236 231
Height
10667 10664 10661 10657 10654 10652 10650 10647 10645 10642 10639 10636 10634 10632 10630 10627 10623 10621 10619 10614 10609 10607 10608 10609 10611 10613 10614 10617 10621 10626 10627 10628
10653 10650 10647 10644 10640 10636 10633 10631 10627 10624 10621 10617 10613 10608 10605 10603 10600 10598 10596 10594 10591 10588 10584 10582 10584 10586 10588 10591 10597 10604 10611 10613
10640 10636 10632 10628 10624 10621 10617 10613 10610 10606 10602 10599 10594 10588 10581 10578 10573 10569 10568 10566 10564 10564 10563 10559 10557 10558 10562 10564 10568 10578 10590 10596
10623 10620 10617 10614 10610 10605 10599 10595 10591 10587 10583 10578 10572 10567 10561 10554 10548 10541 10535 10533 10533 10534 10535 10536 10536 10533 10533 10535 10540 10548 10562 10574
10608 10604 10600 10596 10592 10586 10580 10574 10568 10562 10558 10552 10548 10543 10537 10530 10525 10516 10508 10501 10499 10496 10498 10501 10505 10506 10507 10506 10509 10517 10528 10546
10587 10583 10578 10573 10568 10561 10555 10550 10543 10535 10529 10524 10517 10509 10503 10499 10493 10487 10480 10473 10463 10456 10453 10453 10459 10465 10472 10480 10478 10483 10494 10511
10565 10561 10555 10549 10543 10536 10531 10525 10519 10512 10503 10495 10488 10481 10472 10464 10455 10446 10440 10435 10430 10422 10419 10413 10409 10411 10422 10436 10445 10449 10458 10474
10548 10541 10536 10528 10521 10514 10507 10500 10492 10484 10474 10463 10453 10442 10434 10424 10414 10404 10397 10389 10381 10378 10372 10367 10369 10374 10377 10384 10400 10414 10419 10437
10528 10521 10513 10504 10497 10489 10480 10471 10463 10453 10441 10428 10415 10404 10392 10382 10372 10364 10358 10353 10348 10343 10333 10331 10333 10338 10344 10348 10353 10371 10387 10401
10501 10493 10486 10477 10469 10461 10450 10441 10433 10421 10407 10393 10379 10367 10357 10348 10338 10329 10320 10314 10314 10309 10304 10306 10304 10303 10307 10314 10323 10334 10354 10371
10477 10469 10460 10451 10442 10432 10424 10416 10404 10389 10374 10360 10348 10337 10326 10317 10308 10298 10290 10285 10283 10280 10277 10273 10274 10274 10278 10285 10293 10303 10320 10340
10454 10445 10436 10427 10417 10409 10399 10387 10373 10358 10345 10332 10322 10310 10300 10291 10280 10272 10264 10261 10257 10254 10252 10251 10249 10249 10253 10256 10263 10274 10289 10308
10431 10421 10411 10402 10393 10382 10368 10357 10344 10333 10322 10311 10300 10289 10280 10271 10261 10251 10246 10240 10234 10233 10231 10230 10229 10228 10230 10234 10239 10249 10261 10275
10406 10396 10387 10377 10368 10357 10344 10331 10319 10309 10298 10288 10280 10272 10264 10254 10244 10236 10229 10222 10217 10214 10212 10210 10210 10210 10212 10215 10218 10227 10237 10247
10384 10374 10365 10355 10342 10329 10318 10308 10297 10286 10276 10268 10261 10253 10245 10235 10227 10220 10213 10207 10203 10199 10197 10194 10193 10194 10196 10198 10202 10208 10216 10225
10360 10351 10341 10330 10318 10307 10298 10288 10278 10270 10261 10252 10241 10233 10227 10219 10210 10203 10199 10195 10191 10186 10183 10181 10180 10180 10181 10182 10186 10192 10199 10207
10337 10327 10316 10306 10295 10286 10277 10269 10261 10254 10243 10233 10223 10215 10210 10205 10196 10190 10185 10180 10177 10174 10171 10169 10169 10168 10168 10170 10173 10177 10184 10190
10315 10304 10293 10284 10275 10267 10259 10252 10244 10235 10227 10218 10209 10200 10194 10190 10183 10176 10172 10168 10165 10162 10160 10159 10158 10157 10158 10158 10161 10165 10170 10178
10293 10283 10275 10266 10258 10250 10243 10235 10227 10218 10211 10203 10195 10187 10180 10174 10170 10163 10158 10155 10153 10151 10149 10148 10148 10147 10148 10148 10150 10155 10161 10168